{"data":{"norad_id":62065,"epoch":"2026-09-21T12:13:42.923712Z","epoch_age_seconds":93901,"freshness":"FRESH","line1":"1 62065U 24217J   26264.50952458  .00130913  00000+0  10672-2 0  9997","line2":"2 62065  53.1575 185.6139 0002023  75.9309 284.1933 15.69736856105934","mean_motion":15.69736856,"eccentricity":0.0002023,"inclination_deg":53.1575,"raan_deg":185.6139,"arg_perigee_deg":75.9309,"mean_anomaly_deg":284.1933,"bstar":0.0010672,"rev_number":10593,"period_min":91.735120730324,"perigee_km":358.28684563354,"apogee_km":361.01295421325,"semimajor_km":6737.7868999234,"source":"CELESTRAK","updated_at":"2026-09-22T09:00:49.493182Z"}}